ACA9737 VHHH-CYVR

Flight info

Callsign ACA9737
Flight time N/A
Altitude 33000
Route DALOL V631 ENVAR M750 PILOX/N0484F350 M750 IMPAL Y755 CARDS DCT HIOTI DCT CBE Y121 SWING Y88 DAIGO Y889 OATIS OTR3 PUTER A590 PUGAL/N0478F370 A590 POOFF DCT 5600N17901W DCT CJAYY/N0481F390 B757 KATCH DCT POWOL DCT TRENA WHSLR8
Aircraft B77L/H-SDE1E2E3FGHIJ2J3J4J5M1RWXY/LB1D1

Departure

Time 2026-05-04 21:53
Airport Hong Kong International Airport (VHHH)

Arrival

Time N/A
Airport Vancouver International Airport (CYVR)
Time Latitude Longitude Altitude Speed Heading
2026-05-04 21:35 22.31536 113.92398 38 ft 0 kts 206°
2026-05-04 21:40 22.31547 113.92403 39 ft 4 kts 206°
2026-05-04 21:40 22.31571 113.92416 36 ft 4 kts 206°
2026-05-04 21:40 22.31596 113.92429 37 ft 4 kts 206°
2026-05-04 21:41 22.31617 113.92443 38 ft 4 kts 237°
2026-05-04 21:41 22.31624 113.92468 35 ft 4 kts 286°
2026-05-04 21:41 22.31616 113.92488 36 ft 4 kts 296°
2026-05-04 21:41 22.31604 113.92513 38 ft 4 kts 296°
2026-05-04 21:42 22.31592 113.92539 36 ft 4 kts 296°
2026-05-04 21:42 22.31589 113.92548 36 ft 0 kts 296°
2026-05-04 21:44 22.31606 113.92507 37 ft 14 kts 295°
2026-05-04 21:44 22.31697 113.92434 39 ft 20 kts 340°
2026-05-04 21:45 22.31760 113.92303 40 ft 27 kts 280°
2026-05-04 21:45 22.31779 113.92184 40 ft 0 kts 279°
2026-05-04 21:45 22.31773 113.92222 40 ft 14 kts 279°
2026-05-04 21:45 22.31761 113.92301 40 ft 0 kts 262°
2026-05-04 21:46 22.31741 113.92283 40 ft 12 kts 211°
2026-05-04 21:46 22.31653 113.92136 40 ft 32 kts 251°
2026-05-04 21:46 22.31576 113.91890 40 ft 36 kts 251°
2026-05-04 21:46 22.31497 113.91656 40 ft 35 kts 251°
2026-05-04 21:47 22.31419 113.91407 40 ft 36 kts 251°
2026-05-04 21:47 22.31339 113.91161 38 ft 36 kts 251°
2026-05-04 21:47 22.31258 113.90903 40 ft 31 kts 251°
2026-05-04 21:47 22.31183 113.90664 40 ft 33 kts 251°
2026-05-04 21:48 22.31130 113.90494 40 ft 25 kts 251°
2026-05-04 21:48 22.31083 113.90346 40 ft 18 kts 251°
2026-05-04 21:48 22.31039 113.90205 40 ft 19 kts 251°
2026-05-04 21:48 22.31000 113.90080 40 ft 14 kts 251°
2026-05-04 21:49 22.30964 113.89967 40 ft 18 kts 251°
2026-05-04 21:49 22.30929 113.89854 40 ft 8 kts 253°
2026-05-04 21:49 22.30951 113.89789 40 ft 12 kts 330°
2026-05-04 21:49 22.30965 113.89783 40 ft 0 kts 339°
2026-05-04 21:51 22.30978 113.89778 40 ft 7 kts 339°
2026-05-04 21:51 22.31044 113.89765 40 ft 12 kts 13°
2026-05-04 21:51 22.31108 113.89845 40 ft 17 kts 70°
2026-05-04 21:51 22.31122 113.89887 40 ft 0 kts 71°
2026-05-04 21:52 22.31130 113.89910 40 ft 14 kts 71°
2026-05-04 21:53 22.31242 113.90255 40 ft 96 kts 70°
2026-05-04 21:53 22.31562 113.91253 42 ft 185 kts 71°
2026-05-04 21:53 22.32049 113.92743 383 ft 226 kts 71°
2026-05-04 21:53 22.32649 113.94421 1203 ft 252 kts 69°
2026-05-04 21:54 22.33341 113.96222 2334 ft 263 kts 69°
2026-05-04 21:54 22.33965 113.98027 3897 ft 253 kts 76°
2026-05-04 21:54 22.34480 113.99923 4931 ft 273 kts 71°
2026-05-04 21:54 22.35107 114.01938 5932 ft 293 kts 70°
2026-05-04 21:55 22.35785 114.04082 6696 ft 314 kts 71°
2026-05-04 21:55 22.36107 114.06430 7013 ft 319 kts 97°
2026-05-04 21:55 22.35359 114.08651 7174 ft 318 kts 130°
2026-05-04 21:55 22.33673 114.10098 7644 ft 308 kts 160°
2026-05-04 21:56 22.31605 114.10448 7827 ft 302 kts 191°
2026-05-04 21:56 22.29698 114.09605 7947 ft 298 kts 220°
2026-05-04 21:56 22.28152 114.08135 7970 ft 297 kts 217°
2026-05-04 21:56 22.26215 114.07347 8046 ft 307 kts 185°
2026-05-04 21:57 22.24103 114.07752 8285 ft 310 kts 163°
2026-05-04 21:57 22.22029 114.08388 8346 ft 313 kts 174°
2026-05-04 21:57 22.19849 114.08593 8993 ft 315 kts 180°
2026-05-04 21:57 22.17657 114.08872 9602 ft 325 kts 163°
2026-05-04 21:58 22.15691 114.10123 10370 ft 336 kts 140°
2026-05-04 21:58 22.14293 114.12147 11036 ft 345 kts 120°
2026-05-04 21:58 22.13211 114.14507 11599 ft 356 kts 119°
2026-05-04 21:58 22.12110 114.16912 12392 ft 359 kts 118°
2026-05-04 21:59 22.10983 114.19333 13197 ft 363 kts 119°
2026-05-04 21:59 22.09821 114.21776 13922 ft 370 kts 121°
2026-05-04 21:59 22.08534 114.24201 14570 ft 374 kts 123°
2026-05-04 21:59 22.07179 114.26593 15331 ft 375 kts 123°
2026-05-04 22:00 22.05792 114.29007 15973 ft 382 kts 123°
2026-05-04 22:00 22.04383 114.31462 16582 ft 388 kts 123°
2026-05-04 22:00 22.02960 114.33958 17284 ft 392 kts 123°
2026-05-04 22:00 22.01535 114.36473 18005 ft 394 kts 123°
2026-05-04 22:01 22.00587 114.38152 18398 ft 398 kts 123°
2026-05-04 22:01 21.99135 114.40729 18879 ft 405 kts 124°
2026-05-04 22:01 21.97658 114.43349 19364 ft 412 kts 124°
2026-05-04 22:01 21.96169 114.45992 19920 ft 416 kts 124°
2026-05-04 22:02 21.94658 114.48675 20478 ft 420 kts 124°
2026-05-04 22:02 21.92635 114.52265 21192 ft 426 kts 124°
2026-05-04 22:02 21.91592 114.54114 21548 ft 430 kts 124°
2026-05-04 22:02 21.90049 114.56849 22056 ft 435 kts 124°
2026-05-04 22:03 21.88469 114.59649 22573 ft 440 kts 124°
2026-05-04 22:03 21.86873 114.62475 23081 ft 445 kts 125°
2026-05-04 22:03 21.85254 114.65341 23588 ft 449 kts 125°
2026-05-04 22:03 21.83620 114.68233 24020 ft 454 kts 125°
2026-05-04 22:04 21.81973 114.71147 24468 ft 457 kts 125°
2026-05-04 22:04 21.80314 114.74079 24941 ft 461 kts 125°
2026-05-04 22:04 21.78808 114.77132 25300 ft 467 kts 111°
2026-05-04 22:04 21.78209 114.80598 25594 ft 477 kts 89°
2026-05-04 22:05 21.78637 114.84155 25864 ft 485 kts 71°
2026-05-04 22:05 21.80016 114.87471 25961 ft 490 kts 53°
2026-05-04 22:05 21.82179 114.90277 26115 ft 485 kts 35°
2026-05-04 22:05 21.84891 114.92298 26778 ft 466 kts 26°
2026-05-04 22:06 21.87621 114.94163 27508 ft 463 kts 27°
2026-05-04 22:06 21.90330 114.96035 28229 ft 460 kts 27°
2026-05-04 22:06 21.93001 114.97901 28975 ft 456 kts 27°
2026-05-04 22:06 21.95609 114.99739 29726 ft 452 kts 27°
2026-05-04 22:07 21.98219 115.01591 30432 ft 447 kts 27°
2026-05-04 22:07 22.00802 115.03431 31076 ft 441 kts 27°
2026-05-04 22:07 22.03344 115.05248 31754 ft 434 kts 27°
2026-05-04 22:07 22.05841 115.07035 32376 ft 429 kts 26°
2026-05-04 22:08 22.08326 115.08810 32725 ft 430 kts 26°
2026-05-04 22:08 22.10826 115.10593 32984 ft 433 kts 26°
2026-05-04 22:08 22.13364 115.12400 33005 ft 440 kts 26°
2026-05-04 22:09 22.18560 115.16106 33036 ft 455 kts 26°
2026-05-04 22:09 22.23936 115.19950 33042 ft 471 kts 27°
2026-05-04 22:10 22.29484 115.23927 33040 ft 487 kts 27°
2026-05-04 22:10 22.35179 115.28016 33040 ft 502 kts 27°
2026-05-04 22:11 22.41094 115.32267 33044 ft 517 kts 27°
2026-05-04 22:11 22.47220 115.36366 33038 ft 525 kts 30°
2026-05-04 22:11 22.50065 115.38932 33022 ft 538 kts 39°
2026-05-04 22:12 22.52604 115.41980 33042 ft 549 kts 48°
2026-05-04 22:12 22.56466 115.49164 33052 ft 566 kts 65°
2026-05-04 22:13 22.58355 115.56418 33045 ft 576 kts 81°
2026-05-04 22:13 22.58558 115.65102 33048 ft 581 kts 97°
2026-05-04 22:14 22.56658 115.73561 33049 ft 576 kts 114°
2026-05-04 22:14 22.54306 115.81792 33055 ft 576 kts 107°
2026-05-04 22:15 22.52329 115.90187 33019 ft 580 kts 105°
2026-05-04 22:15 22.50389 115.98664 33039 ft 581 kts 105°
2026-05-04 22:16 22.48691 116.06143 33048 ft 583 kts 105°
2026-05-04 22:16 22.46761 116.14699 33005 ft 579 kts 103°
2026-05-04 22:16 22.46387 116.19004 33016 ft 575 kts 85°
2026-05-04 22:17 22.47142 116.23206 33037 ft 569 kts 66°
2026-05-04 22:17 22.48954 116.26961 33029 ft 559 kts 48°
2026-05-04 22:17 22.51581 116.29990 33051 ft 549 kts 35°
2026-05-04 22:18 22.57541 116.35058 33002 ft 548 kts 40°
2026-05-04 22:18 22.62184 116.41689 33050 ft 562 kts 54°
2026-05-04 22:19 22.66272 116.48939 33043 ft 565 kts 54°
2026-05-04 22:19 22.70620 116.56044 33037 ft 566 kts 50°
2026-05-04 22:20 22.75231 116.62969 33048 ft 566 kts 49°
2026-05-04 22:20 22.79903 116.69827 33032 ft 566 kts 49°
2026-05-04 22:21 22.84561 116.76715 33032 ft 565 kts 49°
2026-05-04 22:21 22.89177 116.83607 33038 ft 564 kts 50°
2026-05-04 22:22 22.93782 116.90508 33029 ft 563 kts 50°
2026-05-04 22:22 22.98342 116.97350 33043 ft 563 kts 50°
2026-05-04 22:23 23.02931 117.04237 33040 ft 563 kts 50°
2026-05-04 22:23 23.07533 117.11149 33052 ft 567 kts 50°
2026-05-04 22:24 23.12175 117.18129 33044 ft 572 kts 50°
2026-05-04 22:24 23.16847 117.25168 33047 ft 576 kts 50°
2026-05-04 22:25 23.21547 117.32261 33043 ft 578 kts 50°
2026-05-04 22:25 23.26243 117.39360 33040 ft 579 kts 50°
2026-05-04 22:26 23.30942 117.46471 33036 ft 577 kts 50°
2026-05-04 22:26 23.35620 117.53560 33062 ft 576 kts 50°
2026-05-04 22:27 23.40288 117.60641 33046 ft 576 kts 50°
2026-05-04 22:27 23.44952 117.67727 33041 ft 575 kts 50°
2026-05-04 22:28 23.49585 117.74774 33040 ft 575 kts 50°
2026-05-04 22:28 23.54240 117.81867 33041 ft 575 kts 50°
2026-05-04 22:29 23.58901 117.88977 33035 ft 577 kts 50°
2026-05-04 22:29 23.63569 117.96108 33043 ft 579 kts 50°
2026-05-04 22:30 23.68253 118.03274 33045 ft 580 kts 50°
2026-05-04 22:30 23.72946 118.10465 33052 ft 581 kts 50°
2026-05-04 22:31 23.77604 118.17614 33033 ft 581 kts 50°
2026-05-04 22:31 23.82317 118.24856 33048 ft 582 kts 50°
2026-05-04 22:32 23.86976 118.32024 33038 ft 582 kts 50°
2026-05-04 22:32 23.91670 118.39257 33039 ft 582 kts 50°
2026-05-04 22:33 23.96354 118.46486 33047 ft 582 kts 50°
2026-05-04 22:33 24.01028 118.53710 33080 ft 582 kts 51°
2026-05-04 22:34 24.05704 118.60944 33050 ft 583 kts 51°
2026-05-04 22:34 24.10355 118.68152 33028 ft 583 kts 51°
2026-05-04 22:35 24.15030 118.75410 33037 ft 583 kts 51°
2026-05-04 22:35 24.19698 118.82667 33040 ft 583 kts 51°
2026-05-04 22:36 24.24367 118.89935 33054 ft 584 kts 51°
2026-05-04 22:36 24.29048 118.97232 33038 ft 585 kts 51°
2026-05-04 22:37 24.33725 119.04535 33044 ft 585 kts 51°
2026-05-04 22:37 24.38402 119.11849 33046 ft 585 kts 51°
2026-05-04 22:38 24.43044 119.19119 33081 ft 585 kts 51°
2026-05-04 22:38 24.47719 119.26450 33042 ft 586 kts 51°
2026-05-04 22:39 24.52393 119.33791 33050 ft 586 kts 51°
2026-05-04 22:39 24.57065 119.41141 33048 ft 587 kts 51°
2026-05-04 22:40 24.61737 119.48501 33048 ft 587 kts 51°
2026-05-04 22:40 24.66407 119.55870 33032 ft 587 kts 52°
2026-05-04 22:41 24.71072 119.63242 33059 ft 587 kts 52°
2026-05-04 22:41 24.75746 119.70639 33065 ft 587 kts 52°
2026-05-04 22:42 24.80408 119.78028 33054 ft 588 kts 52°
2026-05-04 22:42 24.85044 119.85388 33053 ft 588 kts 52°
2026-05-04 22:43 24.89703 119.92795 33052 ft 588 kts 52°
2026-05-04 22:43 24.94354 120.00202 33043 ft 588 kts 52°
2026-05-04 22:44 24.99010 120.07627 33035 ft 588 kts 52°
2026-05-04 22:44 25.03661 120.15055 33037 ft 588 kts 52°
2026-05-04 22:45 25.08309 120.22492 33057 ft 588 kts 52°
2026-05-04 22:45 25.15282 120.33668 33034 ft 589 kts 52°
2026-05-04 22:46 25.19893 120.41074 33024 ft 588 kts 52°
2026-05-04 22:46 25.24528 120.48530 33078 ft 589 kts 52°
2026-05-04 22:47 25.29182 120.56025 33054 ft 593 kts 52°
2026-05-04 22:47 25.33848 120.63553 33027 ft 594 kts 52°
2026-05-04 22:48 25.37723 120.69818 33033 ft 592 kts 52°
2026-05-04 22:48 25.42359 120.77323 33037 ft 591 kts 52°
2026-05-04 22:49 25.47746 120.86055 33057 ft 590 kts 52°
2026-05-04 22:49 25.51623 120.92349 33068 ft 591 kts 52°
2026-05-04 22:50 25.56263 120.99893 33056 ft 591 kts 52°
2026-05-04 22:50 25.60858 121.07378 33066 ft 592 kts 52°
2026-05-04 22:51 25.65492 121.14937 33057 ft 593 kts 53°
2026-05-04 22:51 25.70122 121.22503 33067 ft 593 kts 53°
2026-05-04 22:52 25.74753 121.30083 33059 ft 593 kts 53°
2026-05-04 22:52 25.79383 121.37672 33070 ft 593 kts 53°
2026-05-04 22:53 25.84009 121.45267 33070 ft 594 kts 53°
2026-05-04 22:53 25.88645 121.52892 33104 ft 596 kts 53°
2026-05-04 22:54 25.93284 121.60534 33070 ft 598 kts 53°
2026-05-04 22:54 25.97930 121.68201 33082 ft 597 kts 53°
2026-05-04 22:55 26.02535 121.75813 33099 ft 598 kts 53°
2026-05-04 22:55 26.07168 121.83482 33080 ft 598 kts 53°
2026-05-04 22:56 26.11806 121.91174 33111 ft 600 kts 53°
2026-05-04 22:56 26.16466 121.98912 33082 ft 602 kts 53°
2026-05-04 22:57 26.21117 122.06654 33107 ft 601 kts 53°
2026-05-04 22:57 26.25755 122.14387 33102 ft 598 kts 53°
2026-05-04 22:58 26.30364 122.22082 33102 ft 596 kts 53°
2026-05-04 22:58 26.34964 122.29774 33104 ft 596 kts 53°
2026-05-04 22:59 26.39559 122.37470 33109 ft 597 kts 53°
2026-05-04 22:59 26.44121 122.45124 33111 ft 597 kts 53°
2026-05-04 23:00 26.48722 122.52859 33112 ft 598 kts 53°
2026-05-04 23:00 26.53320 122.60600 33116 ft 598 kts 53°
2026-05-04 23:01 26.57928 122.68372 33106 ft 600 kts 53°
2026-05-04 23:01 26.62529 122.76146 33125 ft 600 kts 53°
2026-05-04 23:02 26.67102 122.83885 33131 ft 600 kts 53°
2026-05-04 23:02 26.71701 122.91682 33116 ft 601 kts 53°
2026-05-04 23:03 26.76297 122.99487 33118 ft 601 kts 53°
2026-05-04 23:03 26.80894 123.07309 33127 ft 600 kts 54°
2026-05-04 23:04 26.85478 123.15121 33125 ft 600 kts 54°
2026-05-04 23:04 26.90054 123.22935 33133 ft 599 kts 54°
2026-05-04 23:05 26.94626 123.30753 33124 ft 600 kts 54°
2026-05-04 23:05 26.99190 123.38571 33123 ft 600 kts 54°
2026-05-04 23:06 27.03751 123.46400 33127 ft 600 kts 54°
2026-05-04 23:06 27.08284 123.54194 33170 ft 600 kts 54°
2026-05-04 23:07 27.12842 123.62042 33127 ft 600 kts 54°
2026-05-04 23:07 27.17395 123.69900 33116 ft 600 kts 54°
2026-05-04 23:08 27.21942 123.77758 33128 ft 599 kts 54°
2026-05-04 23:08 27.26478 123.85612 33160 ft 599 kts 54°
2026-05-04 23:09 27.31013 123.93478 33142 ft 599 kts 54°
2026-05-04 23:09 27.35546 124.01357 33130 ft 599 kts 54°
2026-05-04 23:10 27.40065 124.09223 33137 ft 598 kts 54°
2026-05-04 23:10 27.44574 124.17085 33155 ft 598 kts 55°
2026-05-04 23:11 27.49058 124.24919 33137 ft 598 kts 54°
2026-05-04 23:11 27.53556 124.32792 33144 ft 597 kts 54°
2026-05-04 23:12 27.58059 124.40687 33140 ft 597 kts 54°
2026-05-04 23:12 27.62546 124.48569 33126 ft 598 kts 55°
2026-05-04 23:13 27.67038 124.56475 33146 ft 598 kts 55°
2026-05-04 23:13 27.71497 124.64336 33154 ft 598 kts 55°
2026-05-04 23:14 27.75975 124.72245 33180 ft 598 kts 55°
2026-05-04 23:14 27.80451 124.80164 33148 ft 598 kts 55°
2026-05-04 23:15 27.84923 124.88092 33148 ft 598 kts 55°
2026-05-04 23:15 27.89396 124.96036 33153 ft 597 kts 55°
2026-05-04 23:16 27.93859 125.03977 33161 ft 597 kts 55°
2026-05-04 23:16 27.98285 125.11864 33152 ft 597 kts 55°
2026-05-04 23:17 28.02727 125.19797 33157 ft 596 kts 55°
2026-05-04 23:17 28.07156 125.27720 33139 ft 596 kts 55°
2026-05-04 23:18 28.11577 125.35645 33162 ft 596 kts 55°
2026-05-04 23:18 28.16009 125.43603 33156 ft 596 kts 55°
2026-05-04 23:19 28.20422 125.51543 33133 ft 595 kts 56°
2026-05-04 23:19 28.24854 125.59530 33183 ft 601 kts 56°
2026-05-04 23:20 28.29320 125.67592 33144 ft 602 kts 56°
2026-05-04 23:20 28.33738 125.75591 33145 ft 596 kts 56°
2026-05-04 23:21 28.38123 125.83542 33156 ft 593 kts 56°
2026-05-04 23:21 28.42491 125.91472 33157 ft 592 kts 56°
2026-05-04 23:22 28.46830 125.99365 33155 ft 593 kts 56°
2026-05-04 23:22 28.51204 126.07338 33176 ft 594 kts 56°
2026-05-04 23:23 28.55574 126.15319 33180 ft 595 kts 56°
2026-05-04 23:23 28.59936 126.23300 33166 ft 596 kts 56°
2026-05-04 23:24 28.64316 126.31331 33170 ft 596 kts 56°
2026-05-04 23:24 28.68685 126.39356 33171 ft 596 kts 56°
2026-05-04 23:25 28.73057 126.47401 33170 ft 598 kts 56°
2026-05-04 23:25 28.77434 126.55474 33186 ft 598 kts 56°
2026-05-04 23:26 28.81803 126.63545 33167 ft 598 kts 56°
2026-05-04 23:26 28.86172 126.71632 33179 ft 599 kts 56°